1505793600.37,38611,13.38,73558.8,-2.27,-3.67,-3.43,0,*5C
1505793601.61,38612,13.38,73560.3,-2.27,-3.67,-3.51,0,*5C
1505793602.84,38613,13.38,73560.3,-2.27,-3.75,-3.51,0,*5E
1505793604.07,38614,13.38,73562.8,-2.27,-3.75,-3.43,0,*5A
1505793605.28,38615,13.38,73562.5,-2.27,-3.87,-3.63,0,*54
1505793606.5,38616,13.38,73560.0,-2.27,-3.87,-3.55,0,*52
1505793607.73,38617,13.38,73558.8,-2.23,-3.95,-3.63,0,*51
1505793608.95,38618,13.38,73562.5,-2.23,-3.91,-3.67,0,*5E
1505793610.16,38619,13.38,73562.0,-2.23,-3.95,-3.75,0,*58
1505793611.36,38620,13.38,73560.3,-2.27,-4.09,-3.75,0,*54
1505793612.55,38621,13.38,73560.5,-2.27,-4.09,-3.87,0,*58
1505793613.75,38622,13.38,73560.3,-2.27,-4.05,-3.79,0,*56
1505793614.96,38623,13.38,73562.0,-2.23,-3.95,-3.79,0,*5D
1505793616.17,38624,13.38,73562.3,-2.27,-3.95,-3.79,0,*5E
1505793617.37,38625,13.38,73562.3,-2.27,-3.95,-3.79,0,*5F
1505793618.58,38626,13.38,73564.5,-2.27,-3.95,-3.79,0,*5C
1505793619.78,38627,13.38,73562.8,-2.27,-4.05,-3.79,0,*53
1505793620.98,38628,13.38,73560.8,-2.27,-4.05,-3.79,0,*5C
1505793622.18,38629,13.38,73564.8,-2.23,-4.09,-3.79,0,*55
1505793623.38,38630,13.38,73562.5,-2.23,-4.09,-3.79,0,*5D
1505793624.57,38631,13.38,73562.8,-2.23,-4.09,-3.87,0,*5D
1505793625.77,38632,13.38,73560.5,-2.23,-4.17,-3.87,0,*51
1505793626.99,38633,13.38,73562.8,-2.21,-4.05,-3.75,0,*5C
1505793628.19,38634,13.38,73560.3,-2.23,-4.09,-3.87,0,*58
1505793629.39,38635,13.38,73562.0,-2.23,-4.09,-3.79,0,*58
1505793630.59,38636,13.38,73562.3,-2.23,-4.17,-3.79,0,*54
1505793631.79,38637,13.38,73562.3,-2.23,-4.17,-3.79,0,*55
1505793632.98,38638,13.38,73560.5,-2.23,-4.17,-3.87,0,*5B
1505793634.2,38639,13.38,73560.3,-2.21,-4.17,-3.87,0,*58
1505793635.4,38640,13.38,73564.5,-2.23,-4.17,-3.87,0,*54
1505793636.6,38641,13.38,73562.8,-2.23,-4.17,-3.87,0,*55
1505793637.79,38642,13.38,73560.8,-2.23,-4.33,-3.95,0,*53
1505793639.02,38643,13.38,73562.8,-2.21,-4.33,-3.87,0,*53
1505793640.22,38644,13.38,73560.3,-2.23,-4.33,-3.91,0,*51
1505793641.45,38645,13.38,73562.3,-2.21,-4.29,-3.91,0,*59
1505793642.67,38646,13.38,73564.0,-2.21,-4.41,-4.05,0,*5E
1505793643.86,38647,13.38,73560.5,-2.23,-4.41,-4.09,0,*51
1505793645.08,38648,13.38,73560.8,-2.21,-4.49,-4.13,0,*5F
1505793646.31,38649,13.38,73562.0,-2.21,-4.41,-4.13,0,*56
1505793647.52,38650,13.38,73560.3,-2.21,-4.37,-4.17,0,*5B
1505793648.74,38651,13.38,73562.5,-2.21,-4.29,-4.05,0,*56
1505793649.97,38652,13.38,73560.3,-2.21,-4.29,-4.13,0,*52
1505793651.22,38653,13.38,73560.0,-2.21,-4.29,-4.01,0,*50
1505793652.42,38654,13.38,73560.3,-2.23,-4.33,-4.09,0,*56
1505793653.61,38655,13.38,73558.3,-2.19,-4.25,-4.05,0,*55
1505793654.81,38656,13.38,73562.5,-2.19,-4.25,-4.05,0,*56
1505793656.03,38657,13.38,73562.3,-2.21,-4.13,-4.05,0,*59
1505793657.22,38658,13.38,73562.5,-2.19,-4.13,-4.05,0,*5D
1505793658.42,38659,13.38,73562.3,-2.19,-4.05,-4.05,0,*5B
1505793659.64,38660,13.38,73560.5,-2.19,-4.01,-3.91,0,*5F
1505793660.87,38661,13.38,73564.0,-2.21,-4.05,-3.91,0,*51
1505793662.06,38662,13.38,73562.3,-2.23,-4.09,-3.95,0,*58
1505793663.25,38663,13.38,73562.3,-2.19,-4.13,-3.87,0,*58
1505793664.45,38664,13.38,73560.0,-2.19,-4.17,-3.91,0,*5C
1505793665.64,38665,13.38,73562.3,-2.19,-4.17,-4.05,0,*57
1505793666.86,38666,13.38,73562.8,-2.21,-4.17,-4.05,0,*5F
1505793668.05,38667,13.38,73562.8,-2.19,-4.13,-4.05,0,*51
1505793669.27,38668,13.38,73558.8,-2.19,-4.13,-4.01,0,*5A
1505793670.47,38669,13.38,73560.3,-2.19,-3.91,-3.87,0,*5F
1505793671.67,38670,13.38,73560.5,-2.19,-3.91,-3.87,0,*57
1505793672.87,38671,13.38,73562.0,-2.19,-3.91,-3.83,0,*52
1505793674.07,38672,13.38,73560.8,-2.19,-3.91,-3.75,0,*58
1505793675.3,38673,13.38,73560.0,-2.19,-4.01,-3.75,0,*57
1505793676.54,38674,13.38,73560.0,-2.17,-3.95,-3.71,0,*50
1505793677.75,38675,13.38,73558.0,-2.19,-3.87,-3.71,0,*5C
1505793678.97,38676,13.38,73564.0,-2.19,-3.91,-3.63,0,*5B
1505793680.21,38677,13.38,73560.8,-2.21,-4.05,-3.71,0,*58
1505793681.48,38678,13.38,73560.8,-2.21,-4.01,-3.71,0,*53
1505793682.69,38679,13.38,73560.3,-2.19,-4.05,-3.71,0,*5D
1505793683.89,38680,13.38,73562.8,-2.19,-4.13,-3.75,0,*58
1505793685.08,38681,13.38,73566.3,-2.19,-4.17,-3.75,0,*5D
1505793686.28,38682,13.38,73562.8,-2.19,-4.21,-3.83,0,*52
1505793687.5,38683,13.38,73564.5,-2.17,-4.25,-3.87,0,*5D
1505793688.69,38684,13.38,73562.8,-2.19,-4.29,-3.91,0,*5F
1505793689.93,38685,13.38,73560.8,-2.17,-4.45,-4.01,0,*54
1505793691.11,38686,13.38,73562.3,-2.19,-4.61,-4.17,0,*58
1505793692.33,38687,13.38,73562.5,-2.17,-4.61,-4.13,0,*53
1505793693.57,38688,13.38,73564.5,-2.17,-4.77,-4.25,0,*5E
1505793694.81,38689,13.38,73562.0,-2.17,-4.77,-4.37,0,*5C
1505793696.02,38690,13.38,73564.8,-2.17,-4.65,-4.33,0,*53
1505793697.23,38691,13.38,73564.0,-2.19,-4.77,-4.41,0,*5A
1505793698.47,38692,13.38,73562.8,-2.17,-4.77,-4.49,0,*5F
1505793699.69,38693,13.38,73562.0,-2.19,-4.89,-4.53,0,*5A
1505793700.9,38694,13.38,73564.3,-2.19,-4.81,-4.53,0,*55
1505793702.14,38695,13.38,73564.5,-2.17,-4.77,-4.49,0,*58
1505793703.36,38696,13.38,73562.0,-2.17,-4.65,-4.57,0,*57
1505793704.58,38697,13.38,73562.8,-2.17,-4.61,-4.57,0,*52
1505793705.8,38698,13.38,73560.5,-2.17,-4.61,-4.49,0,*52
1505793707.02,38699,13.38,73560.0,-2.17,-4.57,-4.45,0,*5A
1505793708.21,38700,13.38,73562.3,-2.19,-4.61,-4.49,0,*5C
1505793709.42,38701,13.38,73560.0,-2.17,-4.57,-4.45,0,*5A
1505793710.64,38702,13.38,73564.3,-2.17,-4.57,-4.45,0,*59
1505793711.86,38703,13.38,73562.5,-2.17,-4.57,-4.49,0,*54
1505793713.08,38704,13.38,73562.8,-2.17,-4.57,-4.49,0,*53
1505793714.29,38705,13.38,73562.5,-2.17,-4.45,-4.45,0,*5D
1505793715.48,38706,13.38,73562.0,-2.19,-4.37,-4.37,0,*50
1505793716.71,38707,13.38,73560.5,-2.17,-4.25,-4.21,0,*5B
1505793717.9,38708,13.38,73562.8,-2.19,-4.25,-4.17,0,*5F
1505793719.15,38709,13.38,73564.5,-2.17,-4.13,-4.01,0,*52
1505793720.36,38710,13.38,73562.0,-2.17,-4.13,-3.95,0,*50
1505793721.59,38711,13.38,73562.3,-2.17,-4.21,-3.95,0,*50
1505793722.81,38712,13.38,73562.8,-2.17,-4.21,-3.95,0,*53
1505793724.03,38713,13.38,73560.0,-2.17,-4.25,-3.95,0,*56
1505793725.27,38714,13.38,73560.5,-2.17,-4.09,-4.01,0,*55
1505793726.49,38715,13.38,73562.8,-2.19,-4.17,-4.01,0,*55
1505793727.71,38716,13.38,73560.8,-2.17,-4.13,-3.95,0,*56
1505793728.92,38717,13.38,73562.8,-2.17,-4.13,-3.95,0,*57
1505793730.14,38718,13.38,73560.0,-2.17,-4.13,-3.95,0,*58
1505793731.36,38719,13.38,73562.3,-2.17,-4.09,-3.95,0,*52
1505793732.61,38720,13.38,73560.5,-2.17,-4.01,-3.87,0,*53
1505793733.83,38721,13.38,73562.5,-2.17,-3.95,-3.87,0,*58
1505793735.07,38722,13.38,73564.5,-2.17,-4.01,-3.87,0,*51
1505793736.32,38723,13.38,73566.8,-2.17,-4.01,-3.95,0,*53
1505793737.54,38724,13.38,73566.5,-2.17,-3.87,-3.83,0,*5A
1505793738.76,38725,13.38,73560.8,-2.17,-3.95,-3.83,0,*58
1505793739.96,38726,13.38,73560.3,-2.15,-3.87,-3.83,0,*5A
1505793741.2,38727,13.38,73560.3,-2.17,-3.95,-3.71,0,*57
1505793742.43,38728,13.38,73562.3,-2.17,-3.95,-3.79,0,*50
1505793743.66,38729,13.38,73562.5,-2.13,-3.91,-3.75,0,*5D
1505793744.91,38730,13.38,73560.8,-2.15,-4.01,-3.71,0,*59
1505793746.11,38731,13.38,73560.0,-2.15,-3.95,-3.79,0,*5A
1505793747.31,38732,13.38,73564.0,-2.15,-3.87,-3.79,0,*5A
1505793748.54,38733,13.38,73562.3,-2.15,-3.95,-3.71,0,*50
1505793749.76,38734,13.38,73562.3,-2.15,-3.95,-3.71,0,*57
1505793750.99,38735,13.38,73560.0,-2.15,-4.01,-3.79,0,*54
1505793752.21,38736,13.38,73558.5,-2.15,-3.95,-3.71,0,*55
1505793753.43,38737,13.38,73564.8,-2.15,-3.95,-3.71,0,*54
1505793754.68,38738,13.38,73560.5,-2.15,-4.01,-3.71,0,*51
1505793755.88,38739,13.38,73560.8,-2.15,-4.09,-3.79,0,*50
1505793757.08,38740,13.38,73562.8,-2.15,-4.13,-3.79,0,*55
1505793758.28,38741,13.38,73566.3,-2.15,-4.25,-3.79,0,*51
1505793759.5,38742,13.38,73564.3,-2.13,-4.21,-3.83,0,*55
1505793760.73,38743,13.38,73560.8,-2.13,-4.21,-3.79,0,*51
1505793761.95,38744,13.38,73564.5,-2.13,-4.21,-3.83,0,*53
1505793763.18,38745,13.38,73564.0,-2.15,-4.33,-4.01,0,*5A
1505793764.38,38746,13.38,73562.0,-2.15,-4.37,-4.13,0,*5E
1505793765.58,38747,13.38,73562.0,-2.15,-4.33,-4.13,0,*5B
1505793766.78,38748,13.38,73560.5,-2.15,-4.33,-4.09,0,*5F
1505793767.97,38749,13.38,73562.5,-2.15,-4.37,-4.09,0,*5A
1505793769.17,38750,13.38,73564.5,-2.15,-4.33,-3.95,0,*54
1505793770.39,38751,13.38,73558.5,-2.13,-4.29,-3.95,0,*58
1505793771.61,38752,13.38,73560.3,-2.15,-4.37,-4.01,0,*58
1505793772.83,38753,13.38,73560.0,-2.13,-4.29,-4.09,0,*58
1505793774.02,38754,13.38,73562.3,-2.15,-4.37,-4.09,0,*56
1505793775.24,38755,13.38,73562.8,-2.13,-4.29,-4.05,0,*52
1505793776.46,38756,13.38,73564.3,-2.13,-4.17,-4.05,0,*5C
1505793777.66,38757,13.38,73560.5,-2.15,-4.25,-4.09,0,*56
1505793778.88,38758,13.38,73560.8,-2.13,-4.17,-4.05,0,*52
1505793780.1,38759,13.38,73560.8,-2.13,-4.17,-3.95,0,*5D
1505793781.31,38760,13.38,73562.5,-2.11,-4.05,-3.87,0,*55
1505793782.54,38761,13.38,73560.5,-2.13,-4.05,-3.91,0,*51
1505793783.76,38762,13.38,73560.8,-2.13,-4.09,-3.91,0,*5E
1505793785.0,38763,13.38,73562.8,-2.13,-4.05,-4.01,0,*5D
1505793786.22,38764,13.38,73562.3,-2.13,-3.95,-3.83,0,*59
1505793787.45,38765,13.38,73560.0,-2.13,-3.91,-3.83,0,*5C
1505793788.68,38766,13.38,73560.0,-2.13,-3.91,-3.79,0,*5A
1505793789.91,38767,13.38,73560.8,-2.15,-4.01,-3.79,0,*53
1505793791.14,38768,13.38,73562.3,-2.13,-3.95,-3.79,0,*50
1505793792.36,38769,13.38,73556.5,-2.13,-3.95,-3.75,0,*5D
1505793793.57,38770,13.38,73560.8,-2.15,-3.95,-3.75,0,*53
1505793794.77,38771,13.38,73564.0,-2.15,-4.09,-3.79,0,*5C
1505793795.99,38772,13.38,73562.0,-2.13,-4.09,-3.75,0,*55
1505793797.21,38773,13.38,73562.5,-2.13,-4.21,-3.83,0,*57
1505793798.44,38774,13.38,73564.8,-2.13,-4.21,-3.95,0,*57
1505793799.66,38775,13.38,73564.0,-2.13,-4.21,-3.95,0,*56
1505793800.89,38776,13.38,73560.5,-2.13,-4.21,-3.91,0,*51
1505793802.11,38777,13.38,73560.5,-2.13,-4.17,-3.91,0,*55
1505793803.33,38778,13.38,73562.8,-2.13,-4.17,-3.95,0,*5E
1505793804.54,38779,13.38,73566.8,-2.13,-4.17,-3.95,0,*5F
1505793805.76,38780,13.38,73564.3,-2.11,-4.13,-3.87,0,*5C
1505793807.01,38781,13.38,73562.8,-2.11,-4.01,-3.79,0,*5F
1505793808.27,38782,13.38,73560.3,-2.11,-4.01,-3.79,0,*5C
1505793809.46,38783,13.38,73562.8,-2.09,-4.05,-3.79,0,*50
1505793810.68,38784,13.38,73564.3,-2.11,-4.05,-3.79,0,*5E
1505793811.91,38785,13.38,73560.3,-2.11,-4.05,-3.79,0,*5F
1505793813.14,38786,13.38,73560.3,-2.11,-3.91,-3.79,0,*56
1505793814.36,38787,13.38,73560.5,-2.11,-3.87,-3.75,0,*5C
1505793815.59,38788,13.38,73560.0,-2.11,-3.87,-3.75,0,*53
1505793816.81,38789,13.38,73560.3,-2.11,-3.87,-3.75,0,*52
1505793818.03,38790,13.38,73560.5,-2.11,-3.87,-3.75,0,*5A
1505793819.28,38791,13.38,73562.3,-2.11,-3.79,-3.63,0,*5D
1505793820.52,38792,13.38,73562.8,-2.11,-3.87,-3.71,0,*5C
1505793821.77,38793,13.38,73560.0,-2.11,-3.91,-3.63,0,*59
1505793823.01,38794,13.38,73562.0,-2.11,-3.79,-3.71,0,*5B
1505793824.26,38795,13.38,73566.5,-2.11,-3.79,-3.63,0,*59
1505793825.51,38796,13.38,73560.5,-2.11,-3.79,-3.63,0,*5A
1505793826.75,38797,13.38,73560.8,-2.11,-3.79,-3.63,0,*5B
1505793827.97,38798,13.38,73560.3,-2.09,-3.79,-3.63,0,*5D
1505793829.22,38799,13.38,73560.8,-2.11,-3.75,-3.63,0,*59
1505793830.44,38800,13.38,73560.0,-2.09,-3.79,-3.63,0,*53
1505793831.69,38801,13.38,73560.8,-2.11,-3.79,-3.59,0,*52
1505793832.92,38802,13.38,73562.8,-2.09,-3.79,-3.59,0,*58
1505793834.17,38803,13.38,73564.0,-2.11,-3.79,-3.59,0,*50
1505793835.42,38804,13.38,73564.8,-2.11,-3.87,-3.59,0,*56
1505793836.67,38805,13.38,73560.5,-2.11,-3.87,-3.59,0,*57
1505793837.89,38806,13.38,73562.3,-2.09,-3.91,-3.59,0,*5A
1505793839.15,38807,13.38,73560.3,-2.11,-3.91,-3.59,0,*52
1505793840.39,38808,13.38,73562.5,-2.11,-4.05,-3.59,0,*57
1505793841.67,38809,13.38,73566.5,-2.11,-4.01,-3.59,0,*52
1505793842.89,38810,13.38,73562.3,-2.09,-4.05,-3.59,0,*57
1505793844.12,38811,13.38,73564.0,-2.11,-4.17,-3.71,0,*56
1505793845.36,38812,13.38,73564.5,-2.11,-4.29,-3.71,0,*58
1505793846.58,38813,13.38,73566.0,-2.11,-4.37,-3.75,0,*52
1505793847.8,38814,13.38,73560.8,-2.09,-4.41,-4.01,0,*59
1505793849.01,38815,13.38,73564.0,-2.11,-4.49,-4.05,0,*5D
1505793850.2,38816,13.38,73560.5,-2.09,-4.49,-4.05,0,*57
1505793851.39,38817,13.38,73562.3,-2.09,-4.53,-4.05,0,*5D
1505793852.6,38818,13.38,73560.5,-2.11,-4.53,-4.17,0,*58
1505793853.82,38819,13.38,73564.3,-2.11,-4.49,-4.25,0,*53
1505793855.04,38820,13.38,73562.8,-2.11,-4.37,-4.13,0,*55
1505793856.23,38821,13.38,73562.5,-2.09,-4.29,-4.13,0,*52
1505793857.45,38822,13.38,73562.0,-2.11,-4.29,-4.17,0,*5C
1505793858.67,38823,13.38,73564.8,-2.11,-4.29,-4.05,0,*5E
1505793859.89,38824,13.38,73562.8,-2.11,-4.41,-4.05,0,*57
1505793861.11,38825,13.38,73562.5,-2.11,-4.41,-4.05,0,*56
1505793862.3,38826,13.38,73562.8,-2.09,-4.41,-4.17,0,*5F
1505793863.52,38827,13.38,73562.5,-2.07,-4.33,-4.09,0,*5A
1505793864.74,38828,13.31,73562.0,-2.11,-4.37,-4.17,0,*59
1505793865.96,38829,13.38,73560.0,-2.07,-4.37,-4.09,0,*50
1505793867.14,38830,13.38,73562.3,-2.09,-4.37,-4.05,0,*5A
1505793868.33,38831,13.38,73562.5,-2.09,-4.37,-4.05,0,*5B
1505793869.52,38832,13.38,73564.0,-2.09,-4.41,-4.05,0,*59
1505793870.72,38833,13.38,73560.8,-2.09,-4.37,-4.13,0,*5E
1505793871.93,38834,13.38,73560.3,-2.09,-4.37,-4.01,0,*5A
1505793873.18,38835,13.38,73566.8,-2.11,-4.29,-4.01,0,*5D
1505793874.36,38836,13.38,73564.0,-2.09,-4.37,-4.05,0,*5C
1505793875.56,38837,13.38,73566.0,-2.09,-4.25,-4.13,0,*59
1505793876.76,38838,13.38,73562.5,-2.09,-4.25,-4.13,0,*56
1505793877.96,38839,13.38,73562.8,-2.09,-4.17,-4.05,0,*51
1505793879.15,38840,13.38,73560.5,-2.09,-4.17,-3.91,0,*55
1505793880.37,38841,13.38,73562.8,-2.09,-4.25,-4.01,0,*5B
1505793881.57,38842,13.38,73562.5,-2.09,-4.13,-3.91,0,*53
1505793882.76,38843,13.38,73560.5,-2.09,-4.13,-3.87,0,*55
1505793883.95,38844,13.38,73556.8,-2.09,-4.13,-3.87,0,*52
1505793885.14,38845,13.38,73560.0,-2.09,-4.05,-3.87,0,*54
1505793886.34,38846,13.38,73560.8,-2.09,-4.05,-3.79,0,*56
1505793887.56,38847,13.38,73564.3,-2.07,-4.13,-3.83,0,*5B
1505793888.78,38848,13.38,73562.3,-2.07,-4.09,-3.87,0,*5B
1505793890.0,38849,13.31,73560.0,-2.07,-4.13,-3.87,0,*51
1505793891.25,38850,13.38,73566.0,-2.07,-4.01,-3.83,0,*5E
1505793892.48,38851,13.38,73560.5,-2.07,-4.09,-3.83,0,*57
1505793893.7,38852,13.38,73560.0,-2.07,-4.09,-3.87,0,*50
1505793894.92,38853,13.38,73562.5,-2.07,-4.09,-3.87,0,*51
1505793896.17,38854,13.38,73562.3,-2.07,-4.01,-3.87,0,*5E
1505793897.39,38855,13.38,73564.3,-2.07,-4.09,-3.83,0,*53
1505793898.61,38856,13.38,73560.8,-2.07,-4.09,-3.87,0,*54
1505793899.84,38857,13.38,73566.0,-2.07,-4.09,-3.87,0,*55
1505793901.06,38858,13.38,73562.5,-2.07,-3.95,-3.83,0,*5C
1505793902.27,38859,13.38,73564.5,-2.05,-3.95,-3.83,0,*5F
1505793903.49,38860,13.38,73560.5,-2.07,-3.83,-3.83,0,*50
1505793904.72,38861,13.38,73564.0,-2.07,-3.87,-3.75,0,*5C
1505793905.96,38862,13.38,73562.8,-2.07,-3.83,-3.75,0,*5B
1505793907.18,38863,13.38,73560.5,-2.05,-3.83,-3.71,0,*5C
1505793908.42,38864,13.31,73558.3,-2.07,-3.87,-3.71,0,*5D
1505793909.67,38865,13.31,73560.0,-2.07,-3.83,-3.71,0,*58
1505793910.89,38866,13.38,73562.0,-2.05,-3.83,-3.71,0,*59
1505793912.14,38867,13.38,73566.3,-2.07,-3.75,-3.67,0,*54
1505793913.39,38868,13.38,73562.5,-2.07,-3.75,-3.67,0,*5B
1505793914.62,38869,13.38,73562.3,-2.05,-3.75,-3.67,0,*58
1505793915.87,38870,13.38,73560.8,-2.07,-3.87,-3.59,0,*52
1505793917.12,38871,13.38,73562.0,-2.07,-3.87,-3.59,0,*53
1505793918.36,38872,13.38,73560.8,-2.07,-3.95,-3.71,0,*59
1505793919.61,38873,13.38,73562.0,-2.07,-3.87,-3.67,0,*5C
1505793920.85,38874,13.38,73560.8,-2.07,-3.95,-3.71,0,*5F
1505793922.06,38875,13.38,73564.0,-2.05,-3.95,-3.75,0,*58
1505793923.3,38876,13.38,73564.5,-2.05,-4.01,-3.71,0,*55
1505793924.56,38877,13.38,73562.5,-2.07,-4.01,-3.75,0,*52
1505793925.76,38878,13.38,73560.8,-2.05,-4.13,-3.87,0,*51
1505793926.98,38879,13.38,73562.5,-2.07,-4.21,-3.95,0,*50
1505793928.21,38880,13.38,73562.5,-2.07,-4.13,-3.95,0,*57
1505793929.46,38881,13.38,73564.5,-2.07,-4.25,-4.01,0,*59
1505793930.66,38882,13.38,73562.3,-2.05,-4.25,-4.13,0,*5B
1505793931.86,38883,13.38,73562.8,-2.05,-4.21,-4.09,0,*55
1505793933.09,38884,13.38,73562.5,-2.07,-4.13,-4.09,0,*51
1505793934.31,38885,13.38,73560.5,-2.05,-4.01,-3.95,0,*53
1505793935.57,38886,13.38,73560.3,-2.07,-4.01,-3.87,0,*51
1505793936.76,38887,13.31,73560.5,-2.05,-3.87,-3.83,0,*5F
1505793938.02,38888,13.38,73562.8,-2.07,-4.01,-3.87,0,*5F
1505793939.26,38889,13.31,73560.8,-2.07,-3.95,-3.71,0,*5D
1505793940.51,38890,13.38,73560.3,-2.07,-3.95,-3.71,0,*55
1505793941.73,38891,13.38,73562.8,-2.05,-3.95,-3.71,0,*56
1505793942.96,38892,13.38,73560.8,-2.07,-3.95,-3.75,0,*53
1505793944.22,38893,13.38,73564.3,-2.07,-4.01,-3.83,0,*51
1505793945.47,38894,13.38,73562.3,-2.07,-4.01,-3.83,0,*56
1505793946.67,38895,13.38,73562.8,-2.05,-3.95,-3.83,0,*5F
1505793947.9,38896,13.38,73562.3,-2.05,-4.01,-3.75,0,*5F
1505793949.13,38897,13.38,73564.0,-2.07,-4.13,-3.75,0,*5F
1505793950.34,38898,13.38,73562.5,-2.05,-4.37,-4.01,0,*50
1505793951.54,38899,13.38,73562.5,-2.05,-4.33,-3.95,0,*5F
1505793952.79,38900,13.31,73562.5,-2.07,-4.33,-4.01,0,*56
1505793954.01,38901,13.38,73562.3,-2.07,-4.37,-4.25,0,*55
1505793955.21,38902,13.31,73562.3,-2.05,-4.45,-4.25,0,*51
1505793956.4,38903,13.31,73560.0,-2.05,-4.37,-4.25,0,*55
1505793957.63,38904,13.38,73560.8,-2.07,-4.33,-4.13,0,*51
1505793958.83,38905,13.38,73562.8,-2.05,-4.33,-4.13,0,*52
1505793960.04,38906,13.38,73562.0,-2.05,-4.33,-4.13,0,*51
1505793961.26,38907,13.38,73564.0,-2.07,-4.37,-4.13,0,*56
1505793962.47,38908,13.38,73564.8,-2.07,-4.37,-4.09,0,*52
1505793963.67,38909,13.38,73566.0,-2.05,-4.37,-4.13,0,*5A
1505793964.89,38910,13.38,73564.3,-2.07,-4.45,-4.25,0,*50
1505793966.1,38911,13.38,73566.3,-2.07,-4.45,-4.33,0,*56
1505793967.3,38912,13.38,73560.0,-2.05,-4.45,-4.37,0,*53
1505793968.51,38913,13.38,73560.8,-2.07,-4.45,-4.25,0,*53
1505793969.7,38914,13.31,73560.5,-2.05,-4.45,-4.33,0,*51
1505793970.92,38915,13.38,73566.8,-2.07,-4.45,-4.25,0,*55
1505793972.14,38916,13.38,73560.8,-2.07,-4.45,-4.37,0,*55
1505793973.33,38917,13.38,73560.3,-2.05,-4.45,-4.33,0,*52
1505793974.55,38918,13.38,73560.3,-2.07,-4.49,-4.25,0,*54
1505793975.77,38919,13.38,73562.3,-2.07,-4.45,-4.33,0,*5E
1505793976.98,38920,13.38,73562.0,-2.07,-4.45,-4.25,0,*53
1505793978.21,38921,13.38,73564.0,-2.07,-4.53,-4.37,0,*56
1505793979.43,38922,13.31,73560.0,-2.07,-4.45,-4.37,0,*52
1505793980.65,38923,13.38,73560.8,-2.07,-4.45,-4.37,0,*53
1505793981.87,38924,13.31,73562.5,-2.07,-4.33,-4.13,0,*53
1505793983.1,38925,13.31,73560.0,-2.07,-4.25,-4.09,0,*5E
1505793984.35,38926,13.31,73560.8,-2.07,-4.25,-4.01,0,*55
1505793985.57,38927,13.31,73560.5,-2.07,-4.37,-3.95,0,*5D
1505793986.76,38928,13.31,73562.0,-2.09,-4.41,-4.05,0,*53
1505793987.95,38929,13.31,73562.0,-2.09,-4.53,-4.05,0,*51
1505793989.17,38930,13.38,73562.5,-2.07,-4.53,-4.13,0,*50
1505793990.39,38931,13.38,73566.0,-2.07,-4.49,-4.13,0,*5A
1505793991.62,38932,13.38,73564.0,-2.07,-4.45,-4.21,0,*54
1505793992.84,38933,13.31,73562.0,-2.07,-4.37,-4.13,0,*51
1505793994.07,38934,13.38,73564.5,-2.07,-4.33,-4.13,0,*52
1505793995.26,38935,13.38,73564.5,-2.09,-4.29,-4.17,0,*52
1505793996.45,38936,13.38,73562.8,-2.09,-4.37,-4.25,0,*5F
1505793997.64,38937,13.38,73564.3,-2.09,-4.41,-4.25,0,*5F
1505793998.84,38938,13.31,73562.3,-2.09,-4.41,-4.25,0,*50
1505794000.03,38939,13.38,73566.0,-2.09,-4.25,-4.17,0,*52
1505794001.23,38940,13.38,73566.5,-2.09,-4.25,-4.17,0,*5C
1505794002.42,38941,13.31,73560.3,-2.09,-4.13,-4.13,0,*5C
1505794003.62,38942,13.38,73562.5,-2.09,-4.13,-4.13,0,*5F
1505794004.87,38943,13.38,73564.5,-2.07,-4.01,-3.95,0,*5A
1505794006.12,38944,13.38,73564.8,-2.07,-4.01,-3.95,0,*5D
1505794007.38,38945,13.31,73560.8,-2.07,-4.01,-3.95,0,*5C
1505794008.63,38946,13.38,73562.0,-2.07,-4.01,-3.95,0,*5F
1505794009.88,38947,13.31,73562.0,-2.07,-4.09,-4.01,0,*5C
1505794011.1,38948,13.38,73564.3,-2.09,-4.05,-4.01,0,*51
1505794012.3,38949,13.31,73560.8,-2.09,-4.05,-3.91,0,*5E
1505794013.55,38950,13.31,73562.0,-2.07,-4.01,-3.87,0,*5B
1505794014.77,38951,13.31,73560.3,-2.07,-4.09,-3.83,0,*56
1505794015.96,38952,13.31,73562.5,-2.09,-4.17,-3.87,0,*50
1505794017.15,38953,13.38,73566.0,-2.09,-4.41,-4.05,0,*5F
1505794018.35,38954,13.31,73560.3,-2.09,-4.57,-4.13,0,*58
1505794019.56,38955,13.38,73564.5,-2.09,-4.93,-4.37,0,*57
1505794020.79,38956,13.38,73566.0,-2.09,-5.03,-4.41,0,*5D
1505794022.03,38957,13.38,73566.8,-2.07,-5.11,-4.49,0,*59
1505794023.29,38958,13.31,73560.5,-2.07,-5.23,-4.53,0,*5C
1505794024.49,38959,13.31,73564.5,-2.05,-5.35,-4.65,0,*5D
1505794025.71,38960,13.38,73564.5,-2.07,-5.51,-4.99,0,*54
1505794026.94,38961,13.31,73562.8,-2.09,-5.55,-5.07,0,*59
1505794028.21,38962,13.31,73562.5,-2.11,-5.73,-5.15,0,*54
1505794029.47,38963,13.31,73564.3,-2.09,-5.85,-5.27,0,*54
1505794030.69,38964,13.38,73566.3,-2.11,-5.97,-5.47,0,*5F
1505794031.89,38965,13.31,73562.3,-2.09,-6.05,-5.55,0,*5C
1505794033.14,38966,13.31,73562.5,-2.11,-5.97,-5.61,0,*59
1505794034.36,38967,13.38,73566.0,-2.09,-5.85,-5.47,0,*56
1505794035.59,38968,13.38,73566.0,-2.09,-5.55,-5.31,0,*55
1505794036.82,38969,13.31,73562.0,-2.09,-5.39,-5.31,0,*5E
1505794038.06,38970,13.31,73560.3,-2.11,-5.19,-5.43,0,*58
1505794039.31,38971,13.31,73562.0,-2.09,-4.81,-5.07,0,*50
1505794040.57,38972,13.38,73560.3,-2.11,-4.69,-4.93,0,*50
1505794041.81,38973,13.38,73560.3,-2.11,-4.53,-4.69,0,*5D
1505794043.03,38974,13.31,73560.8,-2.11,-4.49,-4.49,0,*53
1505794044.22,38975,13.31,73562.0,-2.09,-4.49,-4.37,0,*52
1505794045.44,38976,13.31,73562.0,-2.11,-4.41,-4.29,0,*5F
1505794046.66,38977,13.38,73562.5,-2.11,-4.37,-4.25,0,*53
1505794047.86,38978,13.38,73564.8,-2.09,-4.25,-4.17,0,*57
1505794049.05,38979,13.31,73562.3,-2.09,-4.29,-4.17,0,*5A
1505794050.27,38980,13.31,73562.3,-2.11,-4.29,-4.05,0,*56
1505794051.46,38981,13.38,73564.8,-2.09,-4.41,-4.13,0,*57
1505794052.68,38982,13.31,73560.8,-2.11,-4.49,-4.13,0,*55
1505794053.87,38983,13.31,73560.5,-2.09,-4.65,-4.17,0,*57
1505794055.11,38984,13.38,73566.3,-2.11,-4.89,-4.29,0,*56
1505794056.36,38985,13.38,73566.8,-2.11,-5.03,-4.41,0,*5A
1505794057.61,38986,13.38,73566.5,-2.11,-5.19,-4.53,0,*51
1505794058.86,38987,13.38,73564.3,-2.11,-5.43,-4.81,0,*50
1505794060.14,38988,13.38,73566.0,-2.11,-5.69,-5.03,0,*5C
1505794061.42,38989,13.38,73564.3,-2.11,-5.93,-5.27,0,*5E
1505794062.69,38990,13.38,73564.0,-2.11,-5.81,-5.31,0,*52
1505794063.95,38991,13.31,73562.0,-2.11,-5.55,-5.19,0,*50
1505794065.2,38992,13.31,73560.0,-2.11,-5.43,-5.15,0,*58
1505794066.47,38993,13.31,73562.8,-2.11,-5.31,-5.15,0,*5C
1505794067.75,38994,13.38,73562.8,-2.11,-5.19,-5.07,0,*52
1505794069.02,38995,13.38,73564.0,-2.13,-5.11,-5.07,0,*59
1505794070.26,38996,13.31,73562.3,-2.13,-5.11,-4.99,0,*5C
1505794071.54,38997,13.31,73560.8,-2.13,-5.07,-4.81,0,*53
1505794072.8,38998,13.38,73564.3,-2.13,-5.11,-4.73,0,*56
1505794074.05,38999,13.38,73566.8,-2.13,-5.07,-4.61,0,*53
1505794075.3,39000,13.31,73564.8,-2.15,-5.11,-4.85,0,*50
1505794076.54,39001,13.31,73564.0,-2.13,-4.99,-4.81,0,*52
1505794077.78,39002,13.31,73564.8,-2.13,-4.99,-4.69,0,*57
1505794079.04,39003,13.31,73564.5,-2.11,-5.07,-4.57,0,*5F
1505794080.29,39004,13.31,73562.3,-2.11,-5.15,-4.57,0,*5B
1505794081.53,39005,13.31,73564.5,-2.13,-5.35,-4.81,0,*51
1505794082.79,39006,13.31,73564.5,-2.13,-5.47,-5.07,0,*58
1505794084.04,39007,13.31,73564.0,-2.13,-5.51,-5.19,0,*51
1505794085.29,39008,13.31,73562.8,-2.13,-5.51,-5.11,0,*56
1505794086.5,39009,13.31,73564.0,-2.13,-5.43,-4.99,0,*55
1505794087.75,39010,13.31,73562.5,-2.11,-5.43,-5.07,0,*59
1505794089.0,39011,13.31,73564.3,-2.13,-5.51,-5.19,0,*56
1505794090.28,39012,13.31,73562.8,-2.13,-5.65,-5.19,0,*52
1505794091.55,39013,13.31,73562.8,-2.13,-5.61,-5.19,0,*57
1505794092.8,39014,13.31,73566.3,-2.15,-5.65,-5.23,0,*5B
1505794094.08,39015,13.38,73566.8,-2.13,-5.61,-5.31,0,*5B
1505794095.35,39016,13.31,73564.0,-2.13,-5.65,-5.31,0,*5C
1505794096.59,39017,13.31,73566.3,-2.13,-5.61,-5.47,0,*58
1505794097.82,39018,13.38,73566.0,-2.15,-5.39,-5.27,0,*5A
1505794099.07,39019,13.31,73564.8,-2.15,-5.11,-5.23,0,*55
1505794100.3,39020,13.31,73566.8,-2.15,-4.65,-4.89,0,*5C
1505794101.5,39021,13.38,73568.3,-2.15,-4.45,-4.61,0,*59
1505794102.69,39022,13.38,73564.8,-2.15,-4.37,-4.45,0,*59
1505794103.89,39023,13.31,73564.3,-2.15,-4.21,-4.33,0,*5E
1505794105.1,39024,13.31,73562.5,-2.15,-4.21,-4.13,0,*5B